Wyoming Park, Ohio, United States
Lat: 39.24N, Lon: 84.46W
Wx Zone: OHZ077
Local Info
Past Weather Observations for Today

NOTE: This archive is for the closest National Weather Service station to Wyoming Park. Information may differ from the station used for current weather conditions.

Click here for Long-term Archive

Time Weather Temperature Dewpoint Humidity Pressure Winds Precip Visibility
19:53
Overcast
30°F / -1°C 19°F / -7°C 64% 30.39 in
(1029 mb)
NW 13.8 mph
(NW 22 kph)
- 10SM
19:26
Overcast
30°F / -1°C 19°F / -7°C 64% 30.39 in
(1029 mb)
WNW 10.4 mph
(WNW 17 kph)
- 10SM
18:53
Overcast
30°F / -1°C 21°F / -6°C 69% 30.39 in
(1029 mb)
NW 15 mph
(NW 24 kph)
- 10SM
17:53
Overcast
32°F / 0°C 21°F / -6°C 64% 30.36 in
(1028 mb)
NW 9.2 mph
(NW 15 kph)
- 10SM
16:53
Overcast
32°F / 0°C 25°F / -4°C 75% 30.33 in
(1027 mb)
W 9.2 mph
(W 15 kph)
- 10SM
16:46
Overcast
34°F / 1°C 25°F / -4°C 70% 30.33 in
(1027 mb)
W 6.9 mph
(W 11 kph)
- 10SM
15:53
Overcast
34°F / 1°C 25°F / -4°C 70% 30.33 in
(1027 mb)
W 9.2 mph
(W 15 kph)
- 9SM
14:53
Overcast
34°F / 1°C 25°F / -4°C 70% 30.3 in
(1026 mb)
SSW 11.5 mph
(SSW 19 kph)
- 7SM
13:53
Overcast
34°F / 1°C 25°F / -4°C 70% 30.3 in
(1026 mb)
W 12.7 mph
(W 20 kph)
- 9SM
13:39
Overcast
34°F / 1°C 25°F / -4°C 70% 30.3 in
(1026 mb)
SSW 13.8 mph
(SSW 22 kph)
- 9SM
12:53
Overcast
34°F / 1°C 21°F / -6°C 60% 30.3 in
(1026 mb)
WNW 15 mph
(WNW 24 kph)
- 10SM
12:49
Overcast
34°F / 1°C 21°F / -6°C 60% 30.3 in
(1026 mb)
WNW 10.4 mph
(WNW 17 kph)
- 10SM
10:53
Partly Cloudy
34°F / 1°C 23°F / -5°C 65% 30.3 in
(1026 mb)
NW 15 mph
(NW 24 kph)
- 10SM
09:53
Partly Cloudy
32°F / 0°C 23°F / -5°C 69% 30.27 in
(1025 mb)
NW 11.5 mph
(NW 19 kph)
- 10SM
09:34
Mostly Cloudy
32°F / 0°C 23°F / -5°C 69% 30.27 in
(1025 mb)
NW 12.7 mph
(NW 20 kph)
- 8SM
08:53
Overcast
30°F / -1°C 25°F / -4°C 80% 30.24 in
(1024 mb)
NW 10.4 mph
(NW 17 kph)
- 7SM
08:34
Overcast
30°F / -1°C 25°F / -4°C 80% 30.24 in
(1024 mb)
NW 9.2 mph
(NW 15 kph)
- 7SM
08:11
Overcast
30°F / -1°C 25°F / -4°C 80% 30.24 in
(1024 mb)
WNW 11.5 mph
(WNW 19 kph)
- 7SM
07:53
Overcast
30°F / -1°C 25°F / -4°C 80% N/A NW 9.2 mph
(NW 15 kph)
- 7SM
07:00
Overcast
30°F / -1°C 25°F / -4°C 80% 30.21 in
(1023 mb)
NW 11.5 mph
(NW 19 kph)
- 8SM
06:53
Overcast
30°F / -1°C 25°F / -4°C 80% 30.18 in
(1022 mb)
NW 10.4 mph
(NW 17 kph)
- 8SM
06:37
Overcast
30°F / -1°C 25°F / -4°C 80% 30.18 in
(1022 mb)
NW 9.2 mph
(NW 15 kph)
- 8SM
05:53
Overcast
30°F / -1°C 25°F / -4°C 80% 30.15 in
(1021 mb)
NW 6.9 mph
(NW 11 kph)
- 8SM
05:38
Overcast
30°F / -1°C 25°F / -4°C 80% 30.15 in
(1021 mb)
NW 6.9 mph
(NW 11 kph)
- 8SM
04:53
Overcast
30°F / -1°C 25°F / -4°C 80% 30.15 in
(1021 mb)
NW 6.9 mph
(NW 11 kph)
- 8SM
04:33
Overcast
28°F / -2°C 25°F / -4°C 86% 30.15 in
(1021 mb)
NW 8.1 mph
(NW 13 kph)
- 8SM
03:53
Overcast
28°F / -2°C 25°F / -4°C 86% 30.12 in
(1020 mb)
NW 5.8 mph
(NW 9 kph)
- 8SM
02:53
Overcast
28°F / -2°C 25°F / -4°C 86% 30.12 in
(1020 mb)
NNW 5.8 mph
(NNW 9 kph)
- 9SM
01:53
Mostly Cloudy
28°F / -2°C 23°F / -5°C 80% 30.09 in
(1019 mb)
NNW 5.8 mph
(NNW 9 kph)
- 9SM
00:53
Mostly Cloudy
27°F / -3°C 23°F / -5°C 86% 30.09 in
(1019 mb)
Calm - 9SM
Time Weather Temperature Dewpoint Humidity Pressure Winds Precip Visibility


Weather for websites

WeatherForYou.com, LLC is not responsible for any damages or problems caused by this service. Current weather conditions are obtained from the closest station including government and personal stations which may have varying degrees of accuracy. Weather forecasts are derived from the NOAA NDFD. Like all things, this site belongs to Jesus Christ... He just trusts me to maintain it. If you have any questions or comments email webmaster@weatherforyou.com

Copyright © 2014, WeatherForYou.com LLC. All rights reserved.